Regional Weather Roundup
Issued by NWS

Home | Current Version | Previous Version | Text Only | Print | Product List | Glossary On
Versions: 1 2 3 4 5 6 7 8 9 10 11 12 13 14 15 16 17 18 19 20 21 22 23 24 25 26 27 28 29 30 31 32 33 34 35 36 37 38 39 40 41 42 43 44 45 46 47 48 49 50
000
ASUS43 KMPX 311110
RWRMN
WEATHER ROUNDUP FOR MINNESOTA
NATIONAL WEATHER SERVICE TWIN CITIES/CHANHASSEN MN
600 AM CDT THU JUL 31 2014


NOTE: "FAIR" INDICATES FEW OR NO CLOUDS BELOW 12,000 FEET WITH NO
SIGNIFICANT WEATHER AND/OR OBSTRUCTIONS TO VISIBILITY. N/A MEANS
CURRENT SKY AND/OR WEATHER CONDITIONS ARE NOT AVAILABLE.

MNZ060>063-068>070-311200-
   Twin Cities Metro

CITY           SKY/WX    TMP DP  RH WIND       PRES   REMARKS
TWIN CITIES    PTCLDY    63  59  87 SW3       30.04R
ST PAUL        CLEAR     61  58  90 NW3       30.03S
CRYSTAL        CLEAR     60  55  83 CALM      30.03R
BLAINE         CLEAR     61  57  88 CALM      30.03S
LAKEVILLE      CLEAR     57  55  94 W3        30.04S
EDEN PRAIRIE   CLEAR     59  57  93 W3        30.03S
SOUTH ST PAUL  CLEAR     63  58  83 W3        30.03S
LAKE ELMO      FAIR      55  54  94 CALM      30.04S
$$
MNZ001>005-007-008-013>017-022>024-027-028-311200-
   Northwest Minnesota

CITY           SKY/WX    TMP DP  RH WIND       PRES   REMARKS
BEMIDJI        CLEAR     56  53  88 W6        30.04R
HALLOCK        CLEAR     57  55  94 N3        30.02S
ROSEAU         CLEAR     59  54  82 CALM      30.02S
WARROAD        CLEAR     55  52  88 CALM      30.02S FOG
THIEF RVR FALL CLEAR     59  55  88 SW3       30.03S
CROOKSTON      CLEAR     57  55  94 CALM      30.04S
FOSSTON        PTCLDY    52  52 100 CALM      30.05S
DETROIT LAKES  PTCLDY    59  55  88 CALM      30.07R FOG
MOORHEAD       PTCLDY    57  57 100 CALM      30.06R
PARK RAPIDS    PTCLDY    53  52  96 W3        30.05R
$$
MNZ006-009>011-018-025>026-311200-
   North Central Minnesota

CITY           SKY/WX    TMP DP  RH WIND       PRES   REMARKS
BAUDETTE       CLEAR     58  57  97 CALM      30.01S
FLAG ISLAND    CLEAR     64  61  88 CALM      30.00S
INTL FALLS     CLEAR     48  46  93 CALM      29.99S FOG
WASKISH        CLEAR     63  59  88 W3        30.01S
BIG FORK       CLEAR     52  48  87 CALM      30.02R
LONGVILLE      CLEAR     55  54  94 CALM      30.02S
GRAND RAPIDS   CLEAR     59  55  88 CALM      30.01S
CRANE LAKE     CLEAR     45  45 100 CALM      30.01R FOG
ORR            CLEAR     50  48  93 CALM      29.98S FOG
COOK           PTCLDY    50  48  93 CALM      30.01R
$$
MNZ012-019>021-037-311200-
   Northeast Minnesota

CITY           SKY/WX    TMP DP  RH WIND       PRES   REMARKS
DULUTH         PTCLDY    57  54  89 NW3       29.99S
ELY            FOG       46  46 100 CALM      30.00R VSB<1/4
HIBBING        FOG       50  48  93 CALM      30.00S VSB 1/4
EVELETH        FOG       50  48  93 CALM      30.01R VSB<1/4
DULUTH HARBOR  CLEAR     61  57  88 SW7       29.98S
TWO HARBORS    CLEAR     55  52  88 NW5       29.96S
SILVER BAY     CLEAR     45  45 100 CALM      29.96S FOG
GRAND MARAIS     N/A     61  51  70 NW8       29.93S
G MARAIS ARPRT CLEAR     52  46  82 NW5       29.98S
$$
MNZ029>031-032-039>041-046>048-054>057-064-311200-
   West Central Minnesota

CITY           SKY/WX    TMP DP  RH WIND       PRES   REMARKS
FERGUS FALLS   CLEAR     57  55  94 CALM      30.06S
WHEATON        CLEAR     55  54  94 W5        30.08R
MORRIS         PTCLDY    55  54  94 W3        30.06R
ALEXANDRIA     CLEAR     58  56  93 W3        30.07S
ELBOW LAKE     MOCLDY    57  55  91 CALM      30.06S
WADENA         PTCLDY    54  54 100 W3        30.05S
GLENWOOD       PTCLDY    57  55  94 W5        30.07S
APPLETON       CLEAR     55  54  94 W6        30.06S
BENSON         CLEAR     54  54 100 CALM      30.07R
ORTONVILLE     CLEAR     55  52  88 W3        30.07R
MADISON        CLEAR     55  54  94 W5        30.07S
WILLMAR        FAIR      55  52  88 CALM      30.08R
$$
MNZ033>034-036-042>043-049>051-058-059-311200-
   Central Minnesota

CITY           SKY/WX    TMP DP  RH WIND       PRES   REMARKS
ST CLOUD       CLEAR     54  52  93 CALM      30.04S FOG
SAUK CENTRE    FAIR      51  51  97 CALM      30.06S
PAYNESVILLE    PTCLDY    50  50 100 CALM      30.06S
AITKIN         PTCLDY    63  55  77 SW3       30.01S
PINE RIVER     CLEAR     57  54  88 CALM      30.07R
BRAINERD       MOCLDY    54  53  97 S3        30.04R
STAPLES        CLEAR     54  54 100 CALM      30.05S
LONG PRAIRIE   FAIR      52  52 100 CALM      30.06S
LITTLE FALLS   CLEAR     52  50  93 CALM      30.05R
LITCHFIELD     CLEAR     61  57  88 W3        30.06S
BUFFALO        CLEAR     59  55  85 CALM      30.05S
MAPLE LAKE     CLEAR     56  55  94 CALM      30.05S
$$
MNZ037-044-045-052-053-311200-
   East Central Minnesota

CITY           SKY/WX    TMP DP  RH WIND       PRES   REMARKS
PRINCETON      CLEAR     54  54 100 CALM      30.04S
MORA           CLEAR     55  52  88 CALM      30.04S
CAMBRIDGE      CLEAR     61  52  72 CALM      30.01S
RUSH CITY      CLOUDY    57  54  91 W3        30.02S
MOOSE LAKE     CLEAR     54  52  94 SW3       29.99S
HINCKLEY       FAIR      59  57  94 W3        30.01S
CLOQUET        CLEAR     57  55  94 W7        30.00S
MCGREGOR       CLEAR     54  52  94 CALM      30.02S
$$
MNZ071>073-080-081-089-090-097-098-311200-
   Southwest Minnesota

CITY           SKY/WX    TMP DP  RH WIND       PRES   REMARKS
MONTEVIDEO     CLEAR     57  54  88 NW6       30.07S
GRANITE FALLS  CLEAR     53  52  94 SW7       30.08S
CANBY          CLEAR     57  53  86 SW3       30.08S
MARSHALL       CLEAR     54  48  82 W3        30.07R
REDWOOD FALLS  CLEAR     56  54  93 CALM      30.06R
OLIVIA         PTCLDY    55  52  88 CALM      30.06S
PIPESTONE      PTCLDY    55  52  88 CALM      30.10S
WINDOM         CLEAR     54  52  94 CALM      30.09R
WORTHINGTON    PTCLDY    55  50  82 W5        30.11R
JACKSON        CLEAR     57  52  82 W5        30.09S
TRACY          CLEAR     58  54  86 SW7       30.08S
SLAYTON        MOCLDY    56  54  93 CALM      30.11R
$$
MNZ065>067-074>077-082>085-091>093-311200-
   South Central Minnesota

CITY           SKY/WX    TMP DP  RH WIND       PRES   REMARKS
MANKATO        CLEAR     57  52  82 W5        30.06S
NEW ULM        CLEAR     54  54 100 CALM      30.06S
ST JAMES       CLEAR     55  52  88 SW3       30.08S
FAIRMONT       MOCLDY    57  50  77 CALM      30.08S
GLENCOE        CLEAR     58  53  83 SW5       30.06R
FARIBAULT      CLEAR     57  52  82 CALM      30.06S
OWATONNA       CLEAR     55  54  94 CALM      30.07R
WASECA         CLEAR     50  46  87 CALM      30.08S
ALBERT LEA     PTCLDY    61  55  82 CALM      30.07S
$$
MNZ078>079-086>088-094>096-311200-
   Southeast Minnesota

CITY           SKY/WX    TMP DP  RH WIND       PRES   REMARKS
ROCHESTER      CLEAR     57  54  89 W8        30.07R
RED WING       CLEAR     55  55 100 CALM      30.02S
STANTON        CLEAR     56  53  91 S3        30.03S
DODGE CENTER   PTCLDY    55  54  94 W7        30.06S
WINONA         CLEAR     59  55  88 CALM      30.03R
AUSTIN         CLEAR     57  55  94 W3        30.06S
PRESTON        CLEAR     58  57  97 W8        30.06S
$$
ABBREVIATIONS USED IN REMARKS
   TC - TEMPERATURES IN CELSIUS
  WCI - WIND CHILL INDEX
   HX - HEAT INDEX
  VSB - VISIBILITY
$$



USA.gov is the U.S. government's official web portal to all federal, state and local government web resources and services.